Location: El Hornillo
(40.2499°N, 5.1036°W)
Time: 10:59:17
(UTC+00:00)

ARIANE 5 R/B - Pass Details

Date: 05 August 2024
Orbit: 616 x 651 km, 98.0° (Epoch: 11 September)

Event Time Altitude Azimuth Distance (km) Brightness Sun altitude
Exits shadow 23:09:26 41° 352° (N) 952 3.8 -30.4°
Drops below altitude 10° 23:12:22 10° 349° (NNW) 2,062 6.1 -30.6°
Sets 23:14:35 0° 349° (NNW) 2,974 7.2 -30.7°
